Location: Tamazert
(32.6352°N, 5.2072°W)
Time: 00:24:04
(UTC+00:00)

Altair - Pass Details

Date: 11 October 2022
Orbit: 1501 x 1682 km, 47.2° (Epoch: 05 December)

Event Time Altitude Azimuth Distance (km) Brightness Sun altitude
Exits shadow 01:23:50 16° 68° (ENE) 3,360 9.5 -58.8°
Drops below altitude 10° 01:25:25 10° 63° (ENE) 3,817 9.9 -58.6°
Sets 01:28:46 0° 58° (ENE) 4,830 10.6 -58.2°
